STARLINK-1805, 46705

Orbit data source: Space-Track

STARLINK-1805, 46705 is a payload satellite owned by SpaceX/Seattle (US) in LEO that was launched on Sun, 18 Oct 2020 UTC via an FALCON 9 launch vehicle from the Air Force Eastern Test Range (AFETR). Payload-class satellites include a variety of spacecraft equipped with specific instruments for various scientific and technological missions. These include communications satellites like Starlink; space stations such as the ISS; scientific satellites like the Hubble; Earth observation satellites from companies like Planet Labs, Umbra, and HawkEye 360; GPS; miniature CubeSats for education and research; and military/defense satellites.

Loading next visibility...
Identifier
46705, 2020-073AM
Orbit
LEO
Country
Flag of USUS
Related business
Manufacturer
SpaceX/Seattle
Mission
Partially operational Commercial Communications
Bus & Motor
STARLINK, Unknown motor
Mass
260 kg wet, ~248 kg dry
Launch date (UTC)
2020-10-18 (6 years ago)
Launch vehicle
FALCON 9
Launch site
Air Force Eastern Test Range (AFETR)
Object type
Payload
Rocket body
Debris
Shape & HBR
Box + 1 Pan, 10.1 m
Radar Cross Section
13.562 m², Large (>1 m²)

Expand to show TLE details & history
Last TLE update: 6 hours ago

TLE from 6 hours ago
0 STARLINK-1805
1 46705U 20073AM  26127.00002315  .00156692  00000-0  16069-2 0  9996
2 46705  53.0461 320.4773 0002146 153.0024 109.1892 15.63953428  5952
Epoch: 2026-05-07T00:00Z
TLE epoch observation values (Epoch: 2026-05-07T00:00:02.000Z)
Latitude
-52.50807°
Longitude
-7.16614°
Altitude
394.933 km
Speed
7.673 km/s
True Right ascension
14h 30m 46s
True Declination
-52° 19' 59"
Sunlit
Object was in full shadow at epoch
Visualization orbit readout
Latitude
Unknown
Longitude
Unknown
Altitude
Unknown
Speed
Unknown
Apparent Right ascension
Unknown
Apparent Declination
Unknown
Sunlit
N/A
Visualization observer readout
Local Sidereal Time
14:17:04
Azimuth
Unknown
Elevation
Unknown
Doppler factor
Unknown
Orbital elements
Apogee altitude
377.979 km
Perigee altitude
375.08 km
Semi-major axis
6,754.666 km
Eccentricity
0.00021
Inclination
53.0461°
RAAN
320.4773°
Arg. of periapsis
153.0024°
True anomaly
109.21242°
Mean anomaly
109.1892°
Eccentric anomaly
109.20081°
Mean motion
3.90965 °/min
Orbital period
92.08 mins
BSTAR
0.0016069
Loading maneuver chart data...
Computing Atmospheric mass density...
Loading historical data...
Loading historical data...
Loading historical data...
Loading historical data...
Loading historical data...
Loading historical data...
Loading historical data...

Documentation

Showing up to 5 results
|